Location: 3 Angels Observatory
(30.5437°N, 88.5068°W)
Time: 06:55:46
(UTC-05:00)

Daily predictions for brighter satellites

Satellite Brightness Start Highest point End
(mag) Time Altitude Azimuth Time Altitude Azimuth Time Altitude Azimuth
COSMO-SKYMED 1 2.9 19:01:18 10° N 19:05:38 74° WNW 19:09:57 10° SSW
Cosmos 1766 3.2 19:06:15 10° S 19:10:10 76° E 19:14:09 10° N
Atlas Centaur 2 3.4 19:03:32 10° W 19:12:02 69° SSW 19:20:10 10° ESE
SL-16 R/B 3.0 19:07:28 10° SSW 19:13:03 59° WNW 19:18:40 10° N
CENTAUR R/B 3.3 19:09:15 10° SSE 19:13:52 25° ESE 19:18:49 10° NE
COSMOS 2441 4.4 19:10:50 10° SSE 19:15:42 87° WSW 19:20:34 10° NNW
Cosmos 1544 4.4 19:13:38 10° SE 19:16:28 21° E 19:19:18 10° NE
Helios 1B rocket 3.0 19:17:20 10° NNE 19:21:06 34° E 19:24:52 10° SSE
NOSS 3-2 (C) 4.0 19:15:14 10° SW 19:21:08 61° WNW 19:27:29 10° NNE
Cosmos 1766 Rocket 4.1 19:20:23 10° NNE 19:24:23 35° E 19:28:20 10° SSE
Spot 2 Rocket 4.2 19:21:01 10° SE 19:25:28 32° ENE 19:29:55 10° N
OAO 3 Rocket 3.8 19:21:23 10° WNW 19:25:58 48° N 19:30:04 13° ENE
SAR-Lupe-4 3.5 19:22:29 10° SSE 19:25:59 67° ENE 19:29:33 10° N
Milstar 3 4.3 19:18:26 10° W 19:27:45 81° S 19:43:34 16° E
Cosmos 1269 Rocket 4.3 19:23:05 10° S 19:28:02 42° E 19:32:59 10° NNE
Cosmos 1378 3.0 19:25:34 10° N 19:29:18 81° E 19:33:01 10° S
Cosmos 1076 Rocket 3.6 19:25:50 10° N 19:30:04 53° E 19:34:19 10° SSE
Cosmos-2242 3.2 19:27:27 10° SSE 19:31:39 50° E 19:35:53 10° NNE
Cosmos 2034 Rocket 4.0 19:27:54 10° S 19:34:03 67° E 19:40:19 10° NNE
Cosmos 1464 Rocket 4.1 19:28:56 10° S 19:35:13 86° W 19:41:26 10° N
Gbstr 26 Del rocket 3.1 19:34:18 10° SSW 19:38:20 57° SE 19:42:57 11° NE
Cosmos 2056 Rocket 4.0 19:33:15 10° NNW 19:38:38 66° WSW 19:43:57 10° S
Cosmos 1805 3.1 19:35:03 10° S 19:38:57 73° E 19:42:53 10° N
Meteor 1-28 Rocket 3.8 19:36:23 10° N 19:40:03 59° WNW 19:43:41 10° SSW
ATLAS CENTAUR R/B 2.8 19:36:35 10° NW 19:40:17 36° WSW 19:43:44 10° S
Cosmos 1953 2.2 19:36:20 10° S 19:40:18 78° E 19:44:17 10° N
ISS -3.1 19:38:03 10° SW 19:41:16 68° NW 19:44:07 13° NE
Cosmos 2278 Rocket 4.1 19:37:50 10° NW 19:42:44 31° WSW 19:47:39 10° SSW
ALOS 3.3 19:42:16 20° ESE 19:44:04 26° ENE 19:47:55 10° NNE
HJ-1C 3.5 19:42:51 10° SSE 19:46:05 48° ENE 19:49:21 10° N
Cosmos 2297 4.2 19:44:42 10° NNW 19:50:16 62° WSW 19:55:48 10° S
Meteosat 1 Rocket2 4.2 19:43:44 10° WSW 19:50:55 50° S 19:53:39 26° ESE
Cosmos 1842 Rocket 4.0 19:47:27 10° SSE 19:51:25 37° E 19:55:26 10° NNE
Cosmos 158 Rocket 4.4 19:48:22 10° SSE 19:52:44 33° E 19:57:05 10° NE
Cosmos 1943 3.4 19:50:07 10° S 19:55:24 43° ESE 20:00:42 10° NE
Delta 168 4.0 19:51:06 10° WSW 19:55:28 49° S 19:58:40 26° ESE
GPS 2-04 Rocket1 2.8 19:53:25 10° W 19:56:51 55° NNW 19:58:12 32° NE
Cosmos 1408 Rocket 3.6 19:52:50 10° N 19:57:10 80° W 20:01:27 10° S
Cosmos 2369 Rocket 3.7 19:56:18 10° NNE 19:59:46 18° NE 19:59:46 18° NE
FUSE 4.5 19:55:15 10° WSW 20:00:22 47° S 20:02:37 29° SE
Cosmos 1603 4.2 19:54:52 10° SSW 20:00:31 65° WNW 20:06:15 10° NNE
USA 215 3.8 19:54:08 10° NNE 20:00:31 60° NW 20:06:54 10° WSW
ASC 2 Rocket 4.4 19:57:12 10° WSW 20:00:56 27° SSW 20:02:29 21° SSE
Cosmos 1470 2.8 19:58:42 10° SSE 20:02:27 48° E 20:06:12 10° NNE
Resurs 1-3 3.5 20:10:01 17° SSE 20:13:22 84° ENE 20:17:46 10° N
Helios 1A 3.0 20:10:01 11° S 20:14:04 81° W 20:18:17 10° NNW
SeaSat 1 2.5 20:15:13 39° ENE 20:16:32 50° ESE 20:21:18 10° S
Meteor 1-29 4.2 20:13:14 10° N 20:16:34 43° WNW 20:19:52 10° SSW
Resurs 01 Rocket 1.9 20:12:17 10° S 20:16:42 66° W 20:21:08 10° NNW
Cosmos 1674 3.9 20:19:11 10° N 20:21:24 32° NNE 20:21:24 32° NNE
Cosmos 1743 Rocket 3.5 20:21:59 10° N 20:26:25 82° W 20:27:54 41° S
FengYun 1-2 T 4.3 20:21:24 10° S 20:26:55 78° WSW 20:32:25 10° NNW
ASTRO E2 2.8 20:24:01 10° W 20:27:45 71° WSW 20:27:45 71° WSW
SEDSat Delta rocket 3.9 20:27:39 10° W 20:34:25 89° NNE 20:35:59 57° E
Cosmos 1452 Rocket 4.5 20:30:01 10° NNW 20:35:01 45° WSW 20:39:58 10° S
ASTEX 1 4.5 20:49:08 10° N 20:53:45 43° W 20:58:20 10° SSW
Cosmos 1092 Rocket 4.1 20:49:57 10° N 20:56:07 70° W 20:58:30 38° SSW
Atlas Centaur 2 4.0 20:54:07 10° W 21:01:30 33° SSW 21:03:25 30° S
CENTAUR R/B 3.6 20:58:29 10° SW 21:04:03 41° NW 21:10:15 10° NNE
ALOS 4.4 21:20:49 22° WSW 21:21:23 23° W 21:25:04 10° NW
BREEZE-M DEB (TANK) 4.3 21:20:31 10° SW 21:38:19 74° NW 21:38:19 74° NW
Cosmos 2369 Rocket 4.0 21:38:58 10° NNW 21:41:35 27° NW 21:41:35 27° NW
